W4RLH Weather Reports


time (UTC)temp
C
wind
direction
speed
KPH
gust
KPH
rain 1hr
cm
rain 24hr
cm
rain mn
cm
humidity
%
barometer
mb
20260505124542 13 0 1.6 4.8 0.00 0.00 0.00 68 1016.7
20260505123041 12 0 0.0 3.2 0.00 0.00 0.00 53 1016.6
20260505121558 12 0 0.0 0.0 0.00 0.00 0.00 50 1016.7
20260505120044 11 0 0.0 0.0 0.00 0.00 0.00 51 1016.5
20260505114543 11 0 0.0 0.0 0.00 0.00 0.00 56 1016.4
20260505113041 11 0 0.0 0.0 0.00 0.00 0.00 58 1016.4
20260505111542 11 0 0.0 0.0 0.00 0.00 0.00 60 1016.2
20260505101552 11 0 0.0 0.0 0.00 0.00 0.00 69 1015.6
20260505100041 11 0 0.0 0.0 0.00 0.00 0.00 71 1015.5
20260505094540 11 0 0.0 0.0 0.00 0.00 0.00 71 1015.4
20260505093044 11 0 0.0 0.0 0.00 0.00 0.00 72 1015.5
20260505091544 11 0 0.0 0.0 0.00 0.00 0.00 74 1015.3
20260505090057 11 0 0.0 0.0 0.00 0.00 0.00 75 1015.4
20260505084548 11 0 0.0 0.0 0.00 0.00 0.00 77 1015.3
20260505083040 12 0 0.0 0.0 0.00 0.00 0.00 78 1015.3
20260505081545 12 0 0.0 0.0 0.00 0.00 0.00 78 1015.1
20260505080042 12 0 0.0 0.0 0.00 0.00 0.00 78 1015.0
20260505074545 12 0 0.0 0.0 0.00 0.00 0.00 78 1014.9
20260505073041 12 0 0.0 0.0 0.00 0.00 0.00 79 1015.0
20260505071539 12 0 0.0 0.0 0.00 0.00 0.00 78 1014.9
20260505070043 13 0 0.0 0.0 0.00 0.00 0.00 78 1014.9
20260505064543 13 0 0.0 0.0 0.00 0.00 0.00 78 1014.9
20260505063043 13 0 0.0 0.0 0.00 0.00 0.00 77 1014.8
20260505061546 14 0 0.0 0.0 0.00 0.00 0.00 77 1014.9
20260505060042 14 0 0.0 0.0 0.00 0.00 0.00 76 1014.9
20260505054543 15 0 0.0 0.0 0.00 0.00 0.00 76 1014.9
20260505053049 15 0 0.0 0.0 0.00 0.00 0.00 75 1014.9
20260505051545 15 0 0.0 1.6 0.00 0.00 0.00 74 1015.1
20260505041544 16 0 0.0 3.2 0.00 0.00 0.00 71 1015.0
20260505040045 16 0 0.0 3.2 0.00 0.00 0.00 70 1015.1
20260505034540 16 360 0.0 3.2 0.00 0.00 0.00 68 1015.1
20260505033102 17 360 0.0 3.2 0.00 0.00 0.00 68 1015.0
20260505031540 17 360 0.0 4.8 0.00 0.00 0.00 66 1014.9
20260505030044 17 360 1.6 4.8 0.00 0.00 0.00 65 1014.9
20260505024543 17 360 1.6 8.0 0.00 0.00 0.00 65 1015.0
20260505023049 17 360 1.6 3.2 0.00 0.00 0.00 66 1014.9
20260505021540 18 360 1.6 4.8 0.00 0.00 0.00 66 1014.8
20260505020046 17 235 1.6 8.0 0.00 0.00 0.00 67 1014.6
20260505014539 17 0 0.0 4.8 0.00 0.00 0.00 69 1014.5
20260505013044 17 170 0.0 3.2 0.00 0.00 0.00 67 1014.2
20260505011542 17 0 0.0 3.2 0.00 0.00 0.00 66 1014.0
20260505010044 17 0 0.0 0.0 0.00 0.00 0.00 64 1013.8
20260505004548 18 0 0.0 0.0 0.00 0.00 0.00 62 1013.5
20260505003041 18 0 0.0 0.0 0.00 0.00 0.00 61 1013.4
20260505001540 19 0 0.0 0.0 0.00 0.00 0.00 58 1013.4
20260505000048 20 0 0.0 0.0 0.00 0.00 0.00 57 1013.3
20260504234610 20 0 0.0 1.6 0.00 0.00 0.00 60 1013.1
20260504233041 21 0 0.0 3.2 0.00 0.00 0.00 58 1012.8
20260504231552 21 0 0.0 6.4 0.00 0.00 0.00 55 1012.5
20260504230040 21 0 0.0 1.6 0.00 0.00 0.00 51 1012.5
20260504224544 22 0 0.0 3.2 0.00 0.00 0.00 55 1012.5
20260504223042 22 0 0.0 3.2 0.00 0.00 0.00 52 1012.4
20260504221544 23 0 0.0 3.2 0.00 0.00 0.00 44 1012.5
20260504220042 23 25 0.0 6.4 0.00 0.00 0.00 46 1012.5
20260504214544 23 231 1.6 8.0 0.00 0.00 0.00 40 1012.7
20260504213051 23 167 1.6 6.4 0.00 0.00 0.00 42 1012.7
20260504211546 23 211 1.6 4.8 0.00 0.00 0.00 39 1012.7
20260504210053 23 213 1.6 6.4 0.00 0.00 0.00 34 1012.8
20260504204619 24 235 1.6 8.0 0.00 0.00 0.00 33 1012.9
20260504203040 23 237 3.2 8.0 0.00 0.00 0.00 34 1013.0
20260504201540 24 233 1.6 8.0 0.00 0.00 0.00 31 1013.4
20260504200046 23 0 0.0 11.3 0.00 0.00 0.00 32 1013.4
20260504194550 23 238 0.0 6.4 0.00 0.00 0.00 34 1013.4
20260504193045 23 252 1.6 6.4 0.00 0.00 0.00 37 1013.4
20260504191543 23 236 3.2 8.0 0.00 0.00 0.00 39 1013.8
20260504190047 23 223 3.2 6.4 0.00 0.00 0.00 36 1014.1
20260504184551 22 223 4.8 12.9 0.00 0.00 0.00 36 1014.1
20260504183053 22 184 3.2 11.3 0.00 0.00 0.00 38 1014.2
20260504181540 22 237 3.2 11.3 0.00 0.00 0.00 40 1014.3
20260504180041 22 221 3.2 11.3 0.00 0.00 0.00 44 1014.4
20260504174541 22 224 4.8 8.0 0.00 0.03 0.00 40 1014.6
20260504173045 22 0 1.6 6.4 0.00 0.03 0.00 41 1014.8
20260504171544 22 224 1.6 6.4 0.00 0.03 0.00 41 1015.1